Regional Weather Roundup
Issued by NWS

Home | Current Version | Previous Version | Graphics & Text | Print | Product List | Glossary On
Versions: 1 2 3 4 5 6 7 8 9 10 11 12 13 14 15 16 17 18 19 20 21 22 23 24 25 26 27 28 29 30 31 32 33 34 35 36 37 38 39 40 41 42 43 44 45 46 47 48 49 50
000
ASUS43 KDTX 172101
RWRMI
MICHIGAN HOURLY REGIONAL WEATHER ROUNDUP
NATIONAL WEATHER SERVICE DETROIT/PONTIAC MI
400 PM EST FRI NOV 17 2017

NOTE: "FAIR" INDICATES FEW OR NO CLOUDS BELOW 12,000 FEET WITH NO
SIGNIFICANT WEATHER AND/OR OBSTRUCTION TO VISIBILITY.

MIZ047>049-052>055-059>063-066>070-074>076-081>083-172200-
SOUTHEAST LOWER MICHIGAN

CITY           SKY/WX    TMP DP  RH WIND       PRES   REMARKS
ADRIAN         CLOUDY    42  33  70 S13       29.99F
ALMA           CLOUDY    41  32  71 S7        29.94S
ANN ARBOR      CLOUDY    40  31  70 SE9       29.99F WCI  34
BAD AXE        CLOUDY    38  31  77 S13G20    29.99F WCI  30
CARO           CLOUDY    40  31  69 SE12      29.95F WCI  33
DETROIT CITY   PTCLDY    40  31  70 S10       30.03F WCI  33
DETROIT        CLOUDY    40  31  70 SE9       30.03F WCI  34
FLINT          CLOUDY    40  30  67 S14       29.97F WCI  32
GROSSE ILE     CLOUDY    41  32  71 S9        30.02F
HILLSDALE      CLOUDY    41  32  70 SE9G18    29.94F
HOWELL         CLOUDY    39  31  75 SE16G24   29.95F WCI  30

CITY           SKY/WX    TMP DP  RH WIND       PRES   REMARKS
JACKSON        CLOUDY    41  32  70 SE13      29.95F
LAMBERTVILLE   PTSUNNY   45  33  61 SE8       30.00F
LANSING        CLOUDY    40  31  70 S15G22    29.95F WCI  32
LAPEER         MOCLDY    41  31  68 S13G18    29.98F
MASON          PTSUNNY   41  32  70 S12       29.95F
MONROE         CLOUDY    43  32  64 S6        30.01F
MT. CLEMENS    MOCLDY    41  34  76 SE16      30.01F
PONTIAC        CLOUDY    39  30  70 SE13G21   29.98F WCI  31
PORT HOPE        N/A     38  29  70 SE12      29.97F WCI  30
PORT HURON     CLOUDY    41  32  70 S13G21    30.02F
TRI CITIES     PTCLDY    41  32  70 S10       29.95F
MIDLAND        FAIR      41  31  68 S12       29.94F
TROY           PTCLDY    42  32  66 SE9       30.03F
SAGINAW HB     CLOUDY    41  32  70 S12       29.94F
$$
MIZ043>046-050>051-056>058-064>065-071>073-077>080-172200-
SOUTHWEST LOWER MICHIGAN

CITY           SKY/WX    TMP DP  RH WIND       PRES   REMARKS
BATTLE CREEK   CLOUDY    43  33  68 S8        29.94S
BENTON HARBOR  CLOUDY    45  32  60 SE10G20   29.87F
BIG RAPIDS     CLOUDY    39  30  69 S14       29.87F WCI  31
COLDWATER      CLOUDY    42  33  68 SE9G17    29.94F
FREMONT        CLOUDY    40  32  71 SE9       29.86F WCI  35
HOLLAND        CLOUDY    44  33  65 SE12      29.88F
GRAND RAPIDS   CLOUDY    43  33  68 S14       29.91F
IONIA          CLOUDY    41  31  69 S12G18    29.92F
KALAMAZOO      MOSUNNY   44  31  60 S8        29.93F
LUDINGTON      CLOUDY    39  31  70 S8        29.82F WCI  34
MARSHALL       PTSUNNY   40  32  71 SE9       29.94S WCI  35
MOUNT PLEASANT CLOUDY    41  31  66 SE9       29.92F
MUSKEGON       CLOUDY    44  31  60 SE13G22   29.86F
SOUTH HAVEN    CLOUDY    45  32  61 SE9       29.87F
$$
MIZ016>042-172200-
NORTHERN LOWER MICHIGAN

CITY           SKY/WX    TMP DP  RH WIND       PRES   REMARKS
ALPENA         CLOUDY    35  29  78 SE13      29.93F WCI  26
BEAVER ISLAND  CLOUDY    39  32  75 SE9       29.80F WCI  33
BELLAIRE       CLOUDY    39  31  75 S10G17    29.84F WCI  32
CADILLAC       CLOUDY    35  30  82 S12G18    29.84F WCI  27
CHARLEVOIX     CLOUDY    38  29  67 SE8       29.84F WCI  33
FRANKFORT      CLOUDY    41  30  65 S12G18    29.80F
GAYLORD        CLOUDY    34  27  75 S15G23    29.82F WCI  24
GRAYLING       CLOUDY    35  27  70 SE12G21   29.88F WCI  27
HARBOR SPRINGS CLOUDY    37  28  70 SE3       29.84F
HOUGHTON LAKE  CLOUDY    35  28  75 SE10      29.89F WCI  27
MANISTEE       LGT RAIN  40  30  67 SE12G20   29.81F WCI  33
OSCODA         PTCLDY    37  28  70 S14       29.95F WCI  28
PELLSTON       CLOUDY    36  27  69 SE14      29.84F WCI  27
ROGERS CITY    PTCLDY    34  28  79 SE14G21   29.90F WCI  25
TRAVERSE CITY  CLOUDY    40  28  62 VRB6G16   29.81F
$$
MIZ007>008-015-172200-
EASTERN UPPER MICHIGAN

CITY           SKY/WX    TMP DP  RH WIND       PRES   REMARKS
MACKINAC ISLAN CLOUDY    35  27  70 SE9       29.85F WCI  28
NEWBERRY       CLOUDY    32  30  93 SE20      29.76F WCI  20
S. S. MARIE    CLOUDY    36  29  75 SE17      29.87F WCI  26
MUNISING         N/A     39  38  96 S16G26    29.68F WCI  30
$$
MIZ004>006-011>014-085-172200-
CENTRAL UPPER MICHIGAN

CITY           SKY/WX    TMP DP  RH WIND       PRES   REMARKS
MANISTIQUE     CLOUDY    39  32  76 S18G24    29.75F WCI  29
ESCANABA       LGT RAIN  42  37  82 S22G29    29.71F
MENOMINEE      LGT RAIN  41  37  86 SW14G22   29.73F
SAWYER-GWINN   LGT SNOW  37  36  93 S15       29.67F WCI  28
$$
MIZ001>003-009>011-084-172200-
WESTERN UPPER MICHIGAN

CITY           SKY/WX    TMP DP  RH WIND       PRES   REMARKS
IRON MOUNTAIN  LGT RAIN  37  32  82 W8        29.68S WCI  31
HOUGHTON       LGT SNOW  33  31  92 S5        29.65S VSB 3/4 WCI  29
COPPER HARBOR    N/A     35  33  92 VRB5      29.67F WCI  31
IRONWOOD       LGT SNOW N/A N/A N/A SW6       29.64F
$$

ABBREVIATIONS USED IN REMARKS
   TC - TEMPERATURE IN CELSIUS
  WCI - WIND CHILL INDEX
   HX - HEAT INDEX
  VSB - VISIBILITY





USA.gov is the U.S. government's official web portal to all federal, state and local government web resources and services.